BCS9192 WARR-WAAA

Flight info

Callsign BCS9192
Flight time N/A
Altitude 35000
Route PEDSO T15 ENDOG
Aircraft A306/H-SDE3FGHIRWY/LB1

Departure

Time N/A
Airport Juanda International Airport (WARR)

Arrival

Time 2026-05-01 07:25
Airport Sultan Hasanuddin International Airport (WAAA)
Time Latitude Longitude Altitude Speed Heading
2026-05-01 07:23 -5.00954 119.59184 1399 ft 152 kts 212°
2026-05-01 07:23 -5.02716 119.58105 1023 ft 147 kts 211°
2026-05-01 07:24 -5.03601 119.57647 811 ft 143 kts 209°
2026-05-01 07:24 -5.04451 119.57161 631 ft 139 kts 208°
2026-05-01 07:24 -5.05272 119.56685 441 ft 136 kts 206°
2026-05-01 07:24 -5.06100 119.56206 251 ft 135 kts 207°
2026-05-01 07:25 -5.06904 119.55744 47 ft 132 kts 204°
2026-05-01 07:25 -5.07610 119.55348 48 ft 99 kts 213°
2026-05-01 07:25 -5.08125 119.55043 46 ft 66 kts 209°
2026-05-01 07:25 -5.08455 119.54847 47 ft 37 kts 216°
2026-05-01 07:26 -5.08557 119.54721 47 ft 14 kts 238°
2026-05-01 07:26 -5.08608 119.54637 46 ft 14 kts 241°
2026-05-01 07:26 -5.08595 119.54557 44 ft 12 kts 306°
2026-05-01 07:26 -5.08547 119.54488 47 ft 12 kts 302°
2026-05-01 07:27 -5.08501 119.54421 47 ft 7 kts 319°
2026-05-01 07:27 -5.08479 119.54421 47 ft 2 kts 30°
2026-05-01 07:27 -5.08470 119.54433 47 ft 5 kts 53°
2026-05-01 07:27 -5.08465 119.54460 47 ft 3 kts 98°
2026-05-01 07:28 -5.08473 119.54484 47 ft 4 kts 114°
2026-05-01 07:28 -5.08484 119.54504 47 ft 1 kts 120°
2026-05-01 07:28 -5.08489 119.54512 47 ft 2 kts 120°
2026-05-01 07:28 -5.08495 119.54523 47 ft 0 kts 120°
2026-05-01 07:29 -5.08496 119.54524 47 ft 0 kts 120°
2026-05-01 07:29 -5.08497 119.54525 47 ft 0 kts 120°
2026-05-01 07:29 -5.08496 119.54525 47 ft 0 kts 120°
2026-05-01 07:29 -5.08496 119.54524 47 ft 0 kts 120°